User: anonymous   Login
Location: Newark
(22.8000°N, 86.1800°E)
Time: 08:43:41
(UTC+00:00)
Language:

UWE-3 - Orbit

View from above orbital plane
View from above orbital plane
View from above satellite
View from above satellite

Ground track
Ground track

The orbit data is extracted from the following two-line orbital elements,

1 39446U 13066AG  20157.70261777 +.00000174 +00000-0 +29742-4 0  9994
2 39446 097.5978 148.0400 0069661 349.4914 010.4838 14.78545793350838
Epoch (UTC): 05 June 2020 16:51:46
Eccentricity: 0.0069661
inclination: 97.5978°
perigee height: 585 km
apogee height: 683 km
right ascension of ascending node: 148.0400°
argument of perigee: 349.4914°
revolutions per day: 14.78545793
mean anomaly at epoch: 10.4838°
orbit number at epoch: 35083

The dashed part of the orbit path shows where the satellite is in the earth's shadow,  

DLR